GW2278 Weather Reports


Display with metric or nautical units.
time (UTC)temp
F
wind
direction
speed
MPH
gust
MPH
rain 1hr
in
rain 24hr
in
rain mn
in
humidity
%
barometer
mb
20260507002452 57 184 3.0 7.0 0.00 0.29 0.29 99 1005.9
20260507001949 57 178 7.0 8.0 0.00 0.29 0.29 99 1005.6
20260507001445 57 195 3.0 7.0 0.00 0.29 0.29 99 1006.0
20260507000943 57 198 3.0 5.0 0.00 0.29 0.29 99 1006.0
20260507000438 57 205 4.0 13.0 0.00 0.29 0.29 99 1005.9
20260506235934 57 210 4.0 8.0 0.00 0.29 0.29 99 1005.9
20260506235432 57 171 4.0 9.0 0.00 0.29 0.29 99 1005.8
20260506234927 57 160 4.0 8.0 0.00 0.29 0.29 99 1005.8
20260506234425 57 206 5.0 8.0 0.00 0.29 0.29 99 1005.7
20260506233923 57 221 3.0 4.0 0.00 0.29 0.29 99 1005.7
20260506233419 57 164 4.0 7.0 0.00 0.29 0.29 99 1005.9
20260506232915 57 184 5.0 8.0 0.00 0.29 0.29 99 1005.5
20260506232412 57 173 6.0 9.0 0.00 0.29 0.29 99 1005.6
20260506231908 57 199 3.0 8.0 0.00 0.29 0.29 99 1005.5
20260506231405 57 204 4.0 9.0 0.02 0.29 0.29 99 1005.4
20260506230903 57 206 3.0 10.0 0.02 0.29 0.29 99 1005.2
20260506230359 57 120 2.0 7.0 0.00 0.28 0.28 99 1005.4
20260506225855 57 194 4.0 7.0 0.00 0.28 0.28 99 1005.3
20260506225353 56 234 3.0 9.0 0.00 0.28 0.28 99 1005.6
20260506224850 56 180 2.0 5.0 0.00 0.28 0.28 99 1005.3
20260506224347 57 190 2.0 8.0 0.02 0.28 0.28 99 1005.3
20260506223843 57 213 6.0 6.0 0.02 0.28 0.28 99 1005.4
20260506223338 57 178 5.0 9.0 0.00 0.28 0.28 99 1005.5
20260506222836 56 167 12.0 15.0 0.02 0.28 0.28 99 1005.2
20260506222332 56 208 6.0 11.0 0.02 0.28 0.28 99 1005.3
20260506221830 57 218 2.0 7.0 0.02 0.28 0.28 99 1005.3
20260506221327 56 219 3.0 13.0 0.07 0.28 0.28 99 1005.3
20260506220825 56 224 6.0 13.0 0.07 0.27 0.27 99 1005.2
20260506220320 56 182 8.0 12.0 0.00 0.26 0.26 99 1005.6
20260506215817 57 200 13.0 16.0 0.00 0.26 0.26 99 1005.4
20260506215313 57 174 4.0 7.0 0.00 0.26 0.26 99 1005.4
20260506214809 57 196 6.0 8.0 0.02 0.26 0.26 99 1005.2
20260506214306 57 141 4.0 8.0 0.02 0.26 0.26 99 1005.5
20260506213804 57 158 5.0 13.0 0.00 0.26 0.26 99 1005.2
20260506213301 57 184 3.0 8.0 0.00 0.26 0.26 99 1005.5
20260506212758 57 164 1.0 9.0 0.02 0.26 0.26 99 1005.5
20260506212254 57 207 5.0 10.0 0.02 0.26 0.26 99 1005.5
20260506211749 57 196 2.0 5.0 0.02 0.25 0.25 99 1005.4
20260506211246 57 183 3.0 9.0 0.02 0.25 0.25 99 1005.5
20260506210743 57 124 3.0 10.0 0.07 0.25 0.25 99 1005.5
20260506210239 57 193 5.0 5.0 0.09 0.24 0.24 99 1005.6
20260506205736 57 217 3.0 9.0 0.09 0.24 0.24 99 1005.6
20260506205232 57 154 3.0 9.0 0.09 0.22 0.22 99 1005.8
20260506204729 57 199 4.0 6.0 0.19 0.22 0.22 99 1005.7
20260506204227 57 148 3.0 11.0 0.21 0.20 0.20 99 1005.9
20260506203724 57 187 4.0 5.0 0.17 0.19 0.19 99 1005.9
20260506203221 57 199 5.0 8.0 0.02 0.17 0.17 99 1005.9
20260506202719 57 215 4.0 12.0 0.00 0.16 0.16 99 1005.9
20260506202215 57 184 5.0 7.0 0.00 0.16 0.16 99 1005.8
20260506201712 57 204 6.0 12.0 0.02 0.16 0.16 99 1005.9
20260506201208 57 191 5.0 12.0 0.05 0.16 0.16 99 1005.9
20260506200700 57 133 4.0 11.0 0.05 0.16 0.16 99 1006.1
20260506200156 57 187 5.0 16.0 0.02 0.15 0.15 99 1005.8
20260506195652 57 192 4.0 11.0 0.00 0.15 0.15 99 1006.0
20260506195148 57 217 4.0 8.0 0.05 0.15 0.15 99 1006.2
20260506194641 57 198 5.0 12.0 0.02 0.15 0.15 99 1006.0
20260506194137 57 181 9.0 10.0 0.00 0.14 0.14 99 1006.2
20260506193635 57 42 2.0 9.0 0.00 0.14 0.14 99 1006.1
20260506193132 57 219 3.0 15.0 0.00 0.14 0.14 99 1006.5
20260506192629 57 174 5.0 12.0 0.00 0.14 0.14 99 1006.7
20260506192125 57 202 3.0 17.0 0.00 0.14 0.14 99 1006.3
20260506191621 57 209 3.0 9.0 0.00 0.14 0.14 99 1006.8
20260506191117 57 152 4.0 15.0 0.02 0.14 0.14 99 1006.7
20260506190615 57 285 3.0 11.0 0.05 0.14 0.14 99 1006.5
20260506190112 57 172 5.0 13.0 0.02 0.13 0.13 99 1006.6
20260506185609 57 166 13.0 15.0 0.02 0.13 0.13 99 1006.8
20260506185105 57 196 6.0 8.0 0.02 0.13 0.13 99 1006.9
20260506184603 57 149 5.0 9.0 0.07 0.13 0.13 99 1007.0
20260506184100 57 153 6.0 8.0 0.05 0.13 0.13 99 1007.1
20260506183556 57 194 8.0 11.0 0.02 0.12 0.12 98 1006.8
20260506183052 57 121 3.0 11.0 0.02 0.11 0.11 98 1006.7
20260506182550 57 173 5.0 8.0 0.07 0.11 0.11 98 1006.7
20260506182047 57 162 5.0 7.0 0.07 0.11 0.11 98 1006.7
20260506181545 57 136 3.0 11.0 0.07 0.10 0.10 97 1006.9
20260506181041 57 129 5.0 10.0 0.09 0.09 0.09 97 1007.0
20260506180538 57 139 8.0 11.0 0.12 0.09 0.09 97 1007.2
20260506180035 58 119 4.0 18.0 0.17 0.08 0.08 96 1007.1
20260506175531 58 104 2.0 8.0 0.17 0.06 0.06 96 1007.4
20260506175028 59 162 2.0 13.0 0.12 0.04 0.04 95 1007.4
20260506174527 59 153 2.0 8.0 0.07 0.03 0.03 94 1007.5
20260506174022 59 196 4.0 9.0 0.05 0.02 0.02 94 1007.6
20260506173520 59 162 3.0 9.0 0.05 0.02 0.02 93 1008.0
20260506173017 60 183 3.0 8.0 0.05 0.02 0.02 92 1007.9
20260506172514 60 188 7.0 10.0 0.05 0.01 0.01 91 1007.9
20260506172010 60 183 6.0 15.0 0.05 0.01 0.01 90 1007.8
20260506171508 61 228 15.0 15.0 0.02 0.00 0.00 87 1008.1
20260506171005 61 180 4.0 10.0 0.00 0.00 0.00 86 1008.1
20260506170501 62 216 5.0 13.0 0.00 0.00 0.00 84 1008.2
20260506165954 63 200 7.0 12.0 0.00 0.00 0.00 82 1008.1
20260506165452 63 177 7.0 19.0 0.00 0.00 0.00 80 1008.2
20260506164948 64 204 6.0 10.0 0.00 0.00 0.00 79 1007.8
20260506164445 65 207 7.0 16.0 0.00 0.00 0.00 77 1008.0
20260506163943 65 205 9.0 18.0 0.00 0.00 0.00 76 1007.9
20260506163438 65 219 4.0 20.0 0.00 0.00 0.00 76 1008.0
20260506162932 66 166 7.0 14.0 0.00 0.00 0.00 76 1007.6
20260506162430 66 216 3.0 10.0 0.00 0.00 0.00 76 1007.8
20260506161922 65 176 7.0 15.0 0.00 0.00 0.00 76 1007.9
20260506161420 66 176 9.0 13.0 0.00 0.00 0.00 75 1008.0
20260506160917 66 196 7.0 13.0 0.00 0.00 0.00 74 1008.2
20260506160414 66 246 7.0 15.0 0.00 0.00 0.00 74 1008.2
20260506155912 66 131 5.0 11.0 0.00 0.00 0.00 74 1008.3
20260506155409 66 262 8.0 21.0 0.00 0.00 0.00 74 1008.3
20260506153531 67 193 6.0 9.0 0.00 0.00 0.00 72 1008.2
20260506153028 67 224 7.0 17.0 0.00 0.00 0.00 73 1008.1
20260506152525 67 182 18.0 24.0 0.00 0.00 0.00 71 1008.2
20260506152023 67 226 6.0 16.0 0.00 0.00 0.00 73 1008.2
20260506151521 67 225 7.0 11.0 0.00 0.00 0.00 72 1008.3
20260506151018 67 190 3.0 20.0 0.00 0.00 0.00 73 1008.4
20260506150514 68 210 9.0 12.0 0.00 0.00 0.00 71 1008.3
20260506150011 68 155 9.0 11.0 0.00 0.00 0.00 71 1008.3
20260506145507 68 212 5.0 9.0 0.00 0.00 0.00 72 1008.6
20260506145005 67 212 10.0 15.0 0.00 0.00 0.00 72 1008.7
20260506144502 68 201 10.0 20.0 0.00 0.00 0.00 70 1008.5
20260506143959 68 218 6.0 14.0 0.00 0.00 0.00 71 1008.4
20260506143456 68 262 6.0 12.0 0.00 0.00 0.00 71 1008.5
20260506142955 68 214 10.0 11.0 0.00 0.00 0.00 72 1008.6
20260506142452 67 211 7.0 16.0 0.00 0.00 0.00 73 1008.6
20260506141950 67 248 9.0 13.0 0.00 0.00 0.00 74 1008.7
20260506141448 66 105 2.0 14.0 0.00 0.00 0.00 76 1008.8
20260506140946 65 245 2.0 13.0 0.00 0.00 0.00 77 1008.8
20260506140443 65 231 3.0 11.0 0.00 0.00 0.00 77 1008.7
20260506135939 64 191 7.0 13.0 0.00 0.00 0.00 78 1008.7
20260506135437 64 200 5.0 15.0 0.00 0.00 0.00 79 1008.7
20260506134933 64 234 4.0 11.0 0.00 0.00 0.00 79 1008.3
20260506134429 64 225 7.0 13.0 0.00 0.00 0.00 79 1008.4
20260506133926 64 136 5.0 13.0 0.00 0.00 0.00 80 1008.4
20260506133423 64 214 4.0 11.0 0.00 0.00 0.00 80 1008.4
20260506132920 64 282 2.0 15.0 0.00 0.00 0.00 81 1008.6
20260506132417 63 191 9.0 16.0 0.00 0.00 0.00 81 1008.4
20260506131914 63 210 5.0 19.0 0.00 0.00 0.00 82 1008.2
20260506131411 62 232 5.0 7.0 0.00 0.00 0.00 83 1008.7
20260506130908 62 223 6.0 20.0 0.00 0.00 0.00 84 1008.6
20260506130404 62 191 4.0 15.0 0.00 0.00 0.00 85 1008.9
20260506125902 61 212 5.0 13.0 0.00 0.00 0.00 85 1009.0
20260506125400 61 155 5.0 14.0 0.00 0.00 0.00 86 1009.3
20260506124858 61 223 9.0 16.0 0.00 0.00 0.00 86 1009.0
20260506124355 60 219 5.0 14.0 0.00 0.00 0.00 87 1009.2
20260506123853 60 183 4.0 10.0 0.00 0.00 0.00 87 1009.2
20260506123351 60 201 3.0 8.0 0.00 0.00 0.00 88 1009.3
20260506122848 60 174 7.0 9.0 0.00 0.00 0.00 88 1009.4
20260506122344 59 210 4.0 9.0 0.00 0.00 0.00 89 1009.2
20260506121843 59 141 4.0 9.0 0.00 0.00 0.00 89 1009.3
20260506121340 59 166 4.0 6.0 0.00 0.00 0.00 89 1009.3
20260506120837 59 153 5.0 11.0 0.00 0.00 0.00 90 1009.4
20260506120334 59 147 5.0 11.0 0.00 0.00 0.00 90 1009.2
20260506115832 59 247 3.0 6.0 0.00 0.00 0.00 90 1009.2
20260506115330 59 173 5.0 8.0 0.00 0.00 0.00 90 1009.3
20260506114828 59 124 8.0 9.0 0.00 0.00 0.00 90 1009.2
20260506114325 59 193 7.0 10.0 0.00 0.00 0.00 91 1009.1
20260506113823 59 181 2.0 9.0 0.00 0.00 0.00 91 1009.0
20260506113321 58 183 5.0 13.0 0.00 0.00 0.00 91 1008.8
20260506112817 58 215 10.0 15.0 0.00 0.00 0.00 91 1009.1
20260506112315 58 187 3.0 9.0 0.00 0.00 0.00 92 1009.4
20260506111812 58 168 1.0 12.0 0.00 0.00 0.00 92 1009.3
20260506111310 57 170 5.0 11.0 0.00 0.00 0.00 93 1009.4
20260506110807 57 192 5.0 11.0 0.00 0.00 0.00 93 1009.3
20260506110304 57 154 2.0 8.0 0.00 0.00 0.00 94 1009.6
20260506105800 56 107 3.0 10.0 0.00 0.00 0.00 94 1009.3
20260506105257 56 113 3.0 9.0 0.00 0.00 0.00 94 1009.4
20260506104755 56 187 5.0 9.0 0.00 0.00 0.00 94 1009.3
20260506104253 56 217 3.0 11.0 0.00 0.00 0.00 94 1009.3
20260506103750 56 147 3.0 14.0 0.00 0.00 0.00 94 1009.2
20260506103247 56 169 8.0 11.0 0.00 0.00 0.00 94 1009.2
20260506102744 56 202 4.0 9.0 0.00 0.00 0.00 94 1009.1
20260506102242 56 155 5.0 10.0 0.00 0.00 0.00 94 1009.4
20260506101739 56 216 2.0 13.0 0.00 0.00 0.00 94 1009.4
20260506101235 56 217 3.0 6.0 0.00 0.00 0.00 94 1009.1
20260506100734 56 199 4.0 8.0 0.00 0.00 0.00 94 1009.1
20260506100231 56 101 5.0 6.0 0.00 0.00 0.00 94 1009.2
20260506095730 56 141 4.0 10.0 0.00 0.00 0.00 94 1009.2
20260506095226 56 131 2.0 6.0 0.00 0.00 0.00 94 1009.0
20260506094723 56 144 5.0 5.0 0.00 0.00 0.00 93 1009.1
20260506094221 56 183 2.0 11.0 0.00 0.00 0.00 93 1009.3
20260506093720 56 167 5.0 11.0 0.00 0.00 0.00 93 1009.1
20260506093216 56 176 4.0 8.0 0.00 0.00 0.00 93 1009.2
20260506092714 56 196 7.0 7.0 0.00 0.00 0.00 93 1009.1
20260506092212 56 178 8.0 8.0 0.00 0.00 0.00 93 1009.0
20260506091709 56 170 3.0 8.0 0.00 0.00 0.00 93 1009.2
20260506091206 56 216 3.0 9.0 0.00 0.00 0.00 93 1009.2
20260506090704 56 180 6.0 7.0 0.00 0.00 0.00 93 1009.0
20260506090201 56 186 5.0 9.0 0.00 0.00 0.00 92 1009.1
20260506085658 56 142 4.0 9.0 0.00 0.00 0.00 92 1009.3
20260506085153 56 122 3.0 6.0 0.00 0.00 0.00 92 1009.3
20260506084650 56 203 4.0 7.0 0.00 0.00 0.00 92 1009.3
20260506084147 56 201 4.0 11.0 0.00 0.00 0.00 92 1009.5
20260506083644 56 185 2.0 9.0 0.00 0.00 0.00 92 1009.1
20260506083142 56 212 10.0 14.0 0.00 0.00 0.00 92 1009.3
20260506082638 56 188 6.0 9.0 0.00 0.00 0.00 92 1009.3
20260506082134 56 206 2.0 3.0 0.00 0.00 0.00 92 1009.3
20260506081632 56 104 3.0 6.0 0.00 0.00 0.00 91 1009.0
20260506081130 56 77 2.0 4.0 0.00 0.00 0.00 91 1009.3
20260506080627 56 317 1.0 4.0 0.00 0.00 0.00 91 1009.4
20260506080123 56 132 4.0 7.0 0.00 0.00 0.00 91 1009.4
20260506073107 57 206 4.0 7.0 0.00 0.00 0.00 89 1009.3
20260506072604 57 202 5.0 14.0 0.00 0.00 0.00 89 1009.5
20260506072102 57 202 7.0 10.0 0.00 0.00 0.00 89 1009.2
20260506071559 57 191 10.0 11.0 0.00 0.00 0.00 89 1009.5
20260506071057 57 215 3.0 8.0 0.00 0.00 0.00 88 1009.3
20260506070554 57 180 7.0 11.0 0.00 0.00 0.00 88 1009.5
20260506062028 58 180 7.0 11.0 0.00 0.00 0.00 86 1009.2
20260506061523 58 190 3.0 10.0 0.00 0.00 0.00 86 1009.3
20260506061021 58 108 2.0 11.0 0.00 0.00 0.00 85 1009.5
20260506060520 58 194 6.0 9.0 0.00 0.00 0.00 85 1009.3
20260506050948 60 231 3.0 12.0 0.00 0.00 0.00 82 1009.6
20260506050446 60 236 6.0 16.0 0.00 0.00 0.00 81 1009.5
20260506044936 61 264 6.0 13.0 0.00 0.00 0.00 80 1009.7
20260506044435 61 228 5.0 11.0 0.00 0.00 0.00 80 1009.8
20260506043931 61 237 6.0 8.0 0.00 0.00 0.00 79 1009.7
20260506043429 61 238 7.0 16.0 0.00 0.00 0.00 79 1009.8
20260506042926 61 176 9.0 16.0 0.00 0.00 0.00 78 1009.7
20260506042426 61 205 4.0 9.0 0.00 0.00 0.00 78 1009.7
20260506041923 61 189 6.0 18.0 0.00 0.00 0.00 77 1009.8
20260506041421 61 223 6.0 17.0 0.00 0.00 0.00 77 1009.8
20260506040918 62 189 11.0 22.0 0.00 0.00 0.00 76 1009.7
20260506040415 62 220 5.0 20.0 0.00 0.00 0.00 76 1009.6
20260506035911 62 190 5.0 15.0 0.00 0.00 0.00 75 1009.8
20260506035409 61 197 5.0 14.0 0.00 0.00 0.00 75 1009.8
20260506034905 61 235 11.0 14.0 0.00 0.00 0.00 75 1009.9
20260506034403 61 245 5.0 18.0 0.00 0.00 0.00 74 1009.8
20260506033859 62 178 4.0 12.0 0.00 0.00 0.00 74 1009.6
20260506033357 62 221 3.0 15.0 0.00 0.00 0.00 74 1009.8
20260506032854 61 215 10.0 13.0 0.00 0.00 0.00 74 1009.9
20260506032350 62 151 4.0 15.0 0.00 0.00 0.00 73 1009.6
20260506031847 62 261 6.0 16.0 0.00 0.00 0.00 73 1009.6
20260506031345 62 195 16.0 16.0 0.00 0.00 0.00 73 1009.5
20260506030842 61 220 5.0 11.0 0.00 0.00 0.00 73 1009.7
20260506030340 62 217 5.0 13.0 0.00 0.00 0.00 73 1009.8
20260506025837 61 200 9.0 12.0 0.00 0.00 0.00 73 1009.6
20260506025333 61 188 6.0 17.0 0.00 0.00 0.00 73 1009.6
20260506024830 61 242 4.0 15.0 0.00 0.00 0.00 73 1009.7
20260506024327 61 207 4.0 11.0 0.00 0.00 0.00 73 1009.4
20260506023823 61 196 5.0 10.0 0.00 0.00 0.00 73 1009.5
20260506023320 61 185 8.0 16.0 0.00 0.00 0.00 73 1009.6
20260506022817 61 192 6.0 8.0 0.00 0.00 0.00 73 1009.6
20260506022315 61 177 4.0 13.0 0.00 0.00 0.00 72 1009.4
20260506021813 61 222 4.0 11.0 0.00 0.00 0.00 73 1009.6
20260506021309 61 254 3.0 6.0 0.00 0.00 0.00 73 1009.6
20260506020806 61 227 3.0 14.0 0.00 0.00 0.00 72 1009.5
20260506020304 61 189 4.0 10.0 0.00 0.00 0.00 72 1009.7
20260506015801 61 177 9.0 15.0 0.00 0.00 0.00 72 1009.5
20260506015258 61 226 6.0 14.0 0.00 0.00 0.00 72 1009.4
20260506014755 61 139 7.0 14.0 0.00 0.00 0.00 72 1009.4
20260506014252 61 185 9.0 12.0 0.00 0.00 0.00 72 1009.5
20260506013749 61 248 4.0 12.0 0.00 0.00 0.00 72 1009.6
20260506013246 61 232 1.0 5.0 0.00 0.00 0.00 71 1009.4
20260506012742 61 223 11.0 11.0 0.00 0.00 0.00 71 1009.3
20260506012239 62 173 2.0 10.0 0.00 0.00 0.00 70 1009.2
20260506011737 62 204 5.0 17.0 0.00 0.00 0.00 70 1009.4
20260506011233 62 220 3.0 7.0 0.00 0.00 0.00 70 1009.2
20260506010731 62 202 5.0 13.0 0.00 0.00 0.00 69 1008.9
20260506010228 62 226 6.0 11.0 0.00 0.00 0.00 68 1009.2
20260506005725 62 178 7.0 9.0 0.00 0.00 0.00 69 1009.0
20260506005222 62 233 7.0 7.0 0.00 0.00 0.00 68 1008.9
20260506004718 62 180 0.0 9.0 0.00 0.00 0.00 69 1009.0
20260506004216 63 225 3.0 16.0 0.00 0.00 0.00 68 1008.7
20260506003711 62 171 7.0 9.0 0.00 0.00 0.00 69 1008.9
20260506003208 62 197 4.0 11.0 0.00 0.00 0.00 69 1008.7